Miscellaneous Local Product
Issued by NWS Hastings, NE

Home | Current Version | Previous Version | Graphics & Text | Print | Product List | Glossary On
Versions: 1 2 3 4 5 6 7 8 9 10 11 12 13 14 15 16 17 18 19 20 21 22 23 24 25 26 27 28 29 30 31 32 33 34 35 36 37 38 39 40 41 42 43 44 45 46 47 48 49 50
000
AXUS43 KGID 281502
MISGRI

GID CWA HOURLY WEATHER ROUNDUP
NATIONAL WEATHER SERVICE HASTINGS NE
1000 AM CDT SUN SEP 28 2014

NOTE: "FAIR" INDICATES FEW OR NO CLOUDS BELOW 12,000 FEET WITH NO
SIGNIFICANT WEATHER AND/OR OBSTRUCTIONS TO VISIBILITY.

...SOUTH CENTRAL NEBRASKA...

CITY           SKY/WX    TMP DP  RH WIND       PRES   REMARKS
GRAND ISLAND   SUNNY     68  57  68 S13       30.10R
HASTINGS       MOSUNNY   70  57  63 S6        30.09S
KEARNEY        SUNNY     66  55  68 S16       30.10S
ORD            SUNNY     66  56  70 S8        30.07S
YORK           MOSUNNY   68  59  73 S10       30.11S
AURORA         SUNNY     68  58  70 S9        30.10S
LEXINGTON      SUNNY     67  58  72 S8        30.09R
HOLDREGE       SUNNY     67  56  68 SE10      30.09S
HEBRON         MOSUNNY   69  57  65 SW3       30.12S

...NEBRASKA PANHANDLE...

CITY           SKY/WX    TMP DP  RH WIND       PRES   REMARKS
CHADRON        CLOUDY    55  48  77 NE15      30.14R
ALLIANCE       SUNNY     60  53  77 NE14      30.10R
SCOTTSBLUFF    SUNNY     62  52  69 E13       30.09R
SIDNEY         SUNNY     61  52  72 SE9       30.08R

...WESTERN AND NORTH CENTRAL NEBRASKA...

CITY           SKY/WX    TMP DP  RH WIND       PRES   REMARKS
VALENTINE      SUNNY     66  56  70 S8        30.07S
AINSWORTH      SUNNY     66  55  68 SW12      30.08R
ONEILL         SUNNY     66  59  78 S10       30.08R
BROKEN BOW     SUNNY     68  57  68 S10       30.08S
IMPERIAL       SUNNY     64  56  75 SE9       30.06R
NORTH PLATTE   SUNNY     65  56  72 E6        30.08R
MCCOOK         SUNNY     70  58  65 S6        30.07R

...EASTERN NEBRASKA...

CITY           SKY/WX    TMP DP  RH WIND       PRES   REMARKS
NORFOLK        CLOUDY    71  59  65 S9        30.10R
SO SIOUX CITY  PTSUNNY   66  58  75 SE8       30.13S
TEKAMAH        SUNNY     69  58  67 SE7       30.13S
COLUMBUS       MOSUNNY   70  59  68 SE3       30.12S
ALBION         SUNNY     67  56  69 S9        30.10S
OMAHA EPPLEY   MOSUNNY   69  58  67 SE8       30.14R
OFFUTT AFB     SUNNY     67  66  95 SE7       30.14R
MILLARD        SUNNY     68  60  76 SE5       30.13S
LINCOLN        MOSUNNY   69  58  67 S8        30.13S
NEBRASKA CITY  SUNNY     68  58  68 S6        30.15R
BEATRICE       CLOUDY    68  58  71 S8        30.13R
FALLS CITY     SUNNY     70  61  73 S7        30.14S

...NORTHERN KANSAS...

CITY           SKY/WX    TMP DP  RH WIND       PRES   REMARKS
GOODLAND       SUNNY     65  57  75 S21G29    30.06R
HILL CITY      SUNNY     71  55  56 S15G23    30.08R
NORTON         SUNNY     70  52  52 SE10      30.08
PHILLIPSBURG   SUNNY     68  55  64 E7        30.09S
SMITH CENTER   PTSUNNY   68  55  64 SE6       30.11S
BELOIT         SUNNY     70  59  68 S7        30.10S
HAYS           PTSUNNY   70  55  60 S15G21    30.10R
RUSSELL        SUNNY     70  58  65 S14       30.09R
CONCORDIA      PTSUNNY   68  60  75 S5        30.12R
SALINA         MOSUNNY   70  60  70 SE7       30.12R
TOPEKA         SUNNY     70  62  76 E3        30.15S



USA.gov is the U.S. government's official web portal to all federal, state and local government web resources and services.